User: anonymous   Login
Location: Houston
(29.7630°N, 95.3630°W)
Time: 02:00:08
(UTC-05:00)
Language:

ISS - Orbit

View from above orbital plane
View from above orbital plane
View from above satellite
View from above satellite

Ground track
Ground track

The orbit data is extracted from the following two-line orbital elements,

1 25544U 98067A   15184.99734521  .00005897  00000-0  91660-4 0  9994
2 25544 051.6451 000.0778 0003233 116.7467 026.4654 15.55494834950659
Epoch (UTC): 03 July 2015 23:56:10
Eccentricity: 0.0003233
inclination: 51.6451°
perigee height: 398 km
apogee height: 403 km
right ascension of ascending node: 0.0778°
argument of perigee: 116.7467°
revolutions per day: 15.55494834
mean anomaly at epoch: 26.4654°
orbit number at epoch: 95065

The dashed part of the orbit path shows where the satellite is in the earth's shadow,  

DLR